SUPERBIRD-C2

Last updated on Sun Apr 12 2026 00:02:51 GMT+0000 (Coordinated Universal Time)

1 33274U 08038A 26101.49141918 -.00000303 00000+0 00000+0 0 9990 2 33274 2.1880 82.0705 0003837 2.2682 68.2921 1.00270339105068
UTC large
Height (km)
Speed (km/s)
/
Latitude / Longitude
Inclination (degrees)
Orbital Period (minutes)
Azimuth
Elevation
Range (km)
Doppler Factor

Next 0 passes for location: London (51.5072 / 0.1276)

Sorry there are no passes over London.
SUPERBIRD-C2